Abbeville, LA

8:22 PM CDT on April 28, 2017 (GMT -0500)
Abbeville

Weather History for KIYA - October, 2012

Change the Weather History Date:

Saturday, October 13, 2012

  Actual Average (KARA) Record (KARA)
Temperature  
Mean Temperature 76 °F -  
Max Temperature 84 °F 78 °F 91 °F (2015)
Min Temperature 68 °F 57 °F 43 °F (1987)
Cooling Degree Days 11    
Growing Degree Days 26 (Base 50)    
Moisture  
Dew Point 72 °F    
Average Humidity 87    
Maximum Humidity 100    
Minimum Humidity 65    
Precipitation  
Precipitation 0.00 in - - ()
Sea Level Pressure  
Sea Level Pressure 30.13 in    
Wind  
Wind Speed 5 mph ()    
Max Wind Speed 17 mph    
Max Gust Speed 23 mph    
Visibility 7.4 miles    
Events Fog    
Averages and records for this station are not official NWS values.
T = Trace of Precipitation, MM = Missing Value Source: Averaged Metar Reports

Daily Weather History Graph

Daily Weather History Graph

Search for Another Location

Airport or City:

Trip Planner

Search our weather history database for the weather conditions in past years. The results will help you decide how hot, cold, wet, or windy it might be!

Date:

Astronomy

Oct. 13, 2012 Rise Set
Actual Time 7:09 AM CDT 6:39 PM CDT
Civil Twilight 6:45 AM CDT 7:03 PM CDT
Nautical Twilight 6:17 AM CDT 7:30 PM CDT
Astronomical Twilight 5:49 AM CDT 7:58 PM CDT
Moon 5:06 AM CDT (10/13) 5:18 PM CDT (10/13)
Length of Visible Light 12h 18m
Length of Day
11h 29m
Waning Crescent, 5% of the Moon is Illuminated
Oct 13
Waning Crescent
Oct 15
New
Oct 21
First Quarter
Oct 29
Full
Nov 6
Last Quarter

Hourly Weather History & Observations

Time (CDT) Temp. Heat Index Dew Point Humidity Pressure Visibility Wind Dir Wind Speed Gust Speed Precip Events Conditions
1:35 AM 71.8 °F - 71.8 °F 100% 30.16 in 10.0 mi ESE 4.6 mph - N/A   Clear
1:55 AM 71.4 °F - 71.4 °F 100% 30.16 in 7.0 mi ESE 4.6 mph - N/A   Clear
2:15 AM 71.4 °F - 71.4 °F 100% 30.15 in 7.0 mi Calm Calm - N/A   Clear
2:35 AM 70.7 °F - 70.7 °F 100% 30.15 in 4.0 mi Calm Calm - N/A   Clear
2:55 AM 69.1 °F - 69.1 °F 100% 30.14 in 0.5 mi East 3.5 mph - N/A Fog Fog
3:15 AM 69.8 °F - 69.8 °F 100% 30.14 in 1.0 mi Calm Calm - N/A   Mostly Cloudy
3:35 AM 68.2 °F - 68.2 °F 100% 30.14 in 0.2 mi Calm Calm - N/A Fog Fog
3:55 AM 68.0 °F - 68.0 °F 100% 30.13 in 0.2 mi Calm Calm - N/A Fog Fog
4:15 AM 69.8 °F - 69.8 °F 100% 30.14 in 0.8 mi Calm Calm - N/A   Overcast
4:35 AM 71.4 °F - 71.4 °F 100% 30.14 in 0.5 mi ESE 3.5 mph - N/A Fog Fog
5:35 AM 71.2 °F - 71.2 °F 100% 30.16 in 0.5 mi Calm Calm - N/A Fog Fog
5:55 AM 71.6 °F - 71.6 °F 100% 30.16 in 1.2 mi ENE 4.6 mph - N/A   Overcast
6:15 AM 70.5 °F - 70.5 °F 100% 30.16 in 0.8 mi Calm Calm - N/A   Overcast
6:35 AM 70.0 °F - 70.0 °F 100% 30.17 in 0.5 mi Calm Calm - N/A Fog Fog
6:55 AM 69.8 °F - 69.8 °F 100% 30.17 in 0.5 mi Calm Calm - N/A Fog Fog
7:15 AM 69.8 °F - 69.8 °F 100% 30.17 in 1.5 mi East 3.5 mph - N/A   Overcast
7:35 AM 70.0 °F - 70.0 °F 100% 30.17 in 1.8 mi East 3.5 mph - N/A   Mostly Cloudy
7:55 AM 70.9 °F - 70.9 °F 100% 30.17 in 3.0 mi Calm Calm - N/A   Mostly Cloudy
8:15 AM 71.2 °F - 71.2 °F 100% 30.18 in 4.0 mi East 4.6 mph - N/A   Scattered Clouds
8:55 AM 73.2 °F - 73.2 °F 100% 30.18 in 7.0 mi East 6.9 mph - N/A   Mostly Cloudy
9:55 AM 80.1 °F 84.9 °F 74.8 °F 84% 30.19 in 10.0 mi ESE 9.2 mph 16.1 mph N/A   Clear
10:15 AM 81.1 °F 87.0 °F 74.8 °F 81% 30.19 in 10.0 mi ESE 9.2 mph - N/A   Scattered Clouds
11:15 AM 82.9 °F 89.1 °F 73.4 °F 73% 30.18 in 10.0 mi SE 8.1 mph - N/A   Overcast
11:35 AM 83.7 °F 89.4 °F 72.3 °F 69% 30.17 in 10.0 mi SSE 16.1 mph 20.7 mph N/A   Mostly Cloudy
11:55 AM 84.2 °F 89.9 °F 72.1 °F 67% 30.17 in 10.0 mi SE 13.8 mph 21.9 mph N/A   Mostly Cloudy
12:35 PM 84.4 °F 90.6 °F 72.9 °F 68% 30.16 in 10.0 mi SSE 13.8 mph 17.3 mph N/A   Overcast
12:55 PM 84.2 °F 90.3 °F 72.7 °F 68% 30.16 in 10.0 mi SE 15.0 mph 21.9 mph N/A   Overcast
1:15 PM 84.2 °F 89.9 °F 72.1 °F 67% 30.15 in 10.0 mi SE 15.0 mph 23.0 mph N/A   Mostly Cloudy
1:35 PM 84.4 °F 90.3 °F 72.3 °F 67% 30.13 in 10.0 mi SE 13.8 mph 20.7 mph N/A   Mostly Cloudy
1:55 PM 83.7 °F 88.9 °F 71.8 °F 67% 30.12 in 10.0 mi SE 17.3 mph 23.0 mph N/A   Mostly Cloudy
2:15 PM 83.3 °F 88.4 °F 71.8 °F 68% 30.11 in 10.0 mi SE 13.8 mph 20.7 mph N/A   Overcast
2:35 PM 83.7 °F 88.9 °F 71.6 °F 67% 30.10 in 10.0 mi SE 10.4 mph 21.9 mph N/A   Mostly Cloudy
2:55 PM 84.0 °F 89.3 °F 71.4 °F 66% 30.10 in 10.0 mi SE 12.7 mph 18.4 mph N/A   Mostly Cloudy
3:15 PM 83.3 °F 88.2 °F 71.4 °F 67% 30.09 in 10.0 mi SE 12.7 mph 20.7 mph N/A   Mostly Cloudy
3:35 PM 83.8 °F 88.9 °F 71.4 °F 66% 30.09 in 10.0 mi SSE 12.7 mph 17.3 mph N/A   Mostly Cloudy
3:55 PM 84.6 °F 90.0 °F 71.4 °F 65% 30.09 in 10.0 mi SSE 15.0 mph 19.6 mph N/A   Mostly Cloudy
4:15 PM 82.0 °F 86.3 °F 71.1 °F 69% 30.09 in 10.0 mi SE 13.8 mph 18.4 mph N/A   Scattered Clouds
4:35 PM 81.3 °F 85.4 °F 71.1 °F 71% 30.08 in 10.0 mi SE 12.7 mph 17.3 mph N/A   Scattered Clouds
4:55 PM 81.0 °F 84.7 °F 70.9 °F 71% 30.08 in 10.0 mi SE 11.5 mph 18.4 mph N/A   Clear
5:15 PM 80.6 °F 84.6 °F 71.6 °F 74% 30.08 in 10.0 mi SE 9.2 mph - N/A   Scattered Clouds
5:35 PM 80.2 °F 84.0 °F 71.8 °F 75% 30.08 in 10.0 mi SE 9.2 mph - N/A   Mostly Cloudy
5:55 PM 80.6 °F 84.9 °F 72.5 °F 76% 30.08 in 10.0 mi SE 9.2 mph - N/A   Overcast
6:15 PM 79.7 °F - 72.5 °F 79% 30.08 in 10.0 mi SE 5.8 mph - N/A   Overcast
6:35 PM 78.4 °F - 72.7 °F 82% 30.07 in 10.0 mi SE 6.9 mph - N/A   Mostly Cloudy
6:55 PM 77.9 °F - 73.0 °F 85% 30.08 in 10.0 mi SE 5.8 mph - N/A   Mostly Cloudy
7:35 PM 76.1 °F - 73.4 °F 91% 30.08 in 10.0 mi SE 4.6 mph - N/A   Clear
7:55 PM 75.6 °F - 73.6 °F 94% 30.09 in 10.0 mi SE 4.6 mph - N/A   Clear
8:35 PM 75.4 °F - 73.9 °F 95% 30.09 in 10.0 mi SE 5.8 mph - N/A   Scattered Clouds
9:15 PM 75.6 °F - 74.5 °F 96% 30.09 in 10.0 mi SE 5.8 mph - N/A   Clear
9:35 PM 75.7 °F - 74.7 °F 96% 30.09 in 10.0 mi SE 5.8 mph - N/A   Clear
9:55 PM 75.6 °F - 74.7 °F 97% 30.10 in 10.0 mi SE 4.6 mph - N/A   Clear
10:15 PM 75.2 °F - 75.0 °F 99% 30.09 in 10.0 mi SE 4.6 mph - N/A   Clear
10:35 PM 75.4 °F - 75.2 °F 99% 30.09 in 10.0 mi SE 4.6 mph - N/A   Clear
10:55 PM 75.7 °F - 75.6 °F 99% 30.08 in 10.0 mi SE 6.9 mph - N/A   Clear
11:15 PM 76.1 °F - 75.6 °F 98% 30.08 in 10.0 mi SE 5.8 mph - N/A   Scattered Clouds
11:35 PM 76.1 °F - 75.9 °F 99% 30.08 in 10.0 mi SE 6.9 mph - N/A   Clear